dimanche 23 Fév 20
09 : 30

Chartrier Ferrière,

bénéfices reversés pour  la lutte contre la Sclérose En Plaques.

TRAIL  22km  départ   9h30 

course nature  12km   départ    9h40 

RANDO 12km   et  9km  départ  9h45  

Des parcours où les spécialistes vont se régaler et les moins aguerris admirer la beauté des sites qui dominent le Lac du Causse.

Accueil et café de bienvenue à partir de 8h

Située au carrefour du Périgord Noir, du Bas Limousin et du Quercy, cette 8ème édition met en valeur les paysages, le patrimoine, la flore, l’attractivité touristique de   notre région.

  Soupe et  casse-croûte offerts (maximum 500 servis)

  nombreux signaleurs

 ravitaillement sur les 2 parcours

 manifestation solidaire

     cadeau offert  aux 300 premiers inscrits

     challenge MLK 2020

 Trail et course licence FFA obligatoire ou certificat médical de moins d’un an pour la pratique de la course à pied en compétition (conservé par les organisateurs).

Tous les amoureux du Trail, de la rando notez cette date !

Renseignements aux     06-48-63-71-10    et     06-81-31-64-68 






Informations :

anninscverif
Inscription en ligne arrétée le 22/02/2020 à 20:00
ClDosNomVoirTempsS.Cat.CC.Club-
1623VIRAPIN Jonathan00:47:23 MSE1grenoble trail
2461CAMUS Bertrand00:47:56 MM11august running team
3626CROISILLE David00:49:51 MM31S/L ES USSEL
4492DESAPHY Julien00:50:44 MSE2AS LEGRAND
5434BEAUVIR Maelle00:53:04 FSE1S/L GRENOBLE UC
6529GOUMY Vincent00:53:04 MM01les runners du 19
7503DUCLOS Kevin00:53:56 MSE3S/L PAYS DE BRIVE ATHLETIQUE C
8521FROIDEFON Remy00:53:59 MM12
9543LACROIX-RAVEL Delphine00:54:30 FM21S/L TULLE AC
10563MEDINA Fabien00:54:33 MM21S/L PAYS DE BRIVE ATHLETIQUE C
11479DARRIBERE Florian00:55:30 MM13cublac par ses chemins
12624VIZET Patrick00:55:56 MM22la gorzade du carlades
13553LE TOUZE Christophe00:56:27 MM14
14634PATERNE Michel00:56:37 MM51
15494DEVAUD Jean marc00:56:40 MM23lagraule nature
162733BRAS Loic00:58:15 MM02
17597ROUBEYRIE Daniel00:58:16 MM61S/L ATHLETISME ST PANTALEON
18567MORISSET Fabien00:59:15 MM15S/L DONZENAC OXYGENE
19442BILLARD COL Morgane00:59:20 FSE2TAILLEFER TRAIL TEAM
20578PEYSSONNERIE Nicolas00:59:25 MSE4lgn
21481DAVID Laurent00:59:32 MM16
22546LAGANDOGNE Jean marc00:59:32 MM52
23453BOURDON Xavier00:59:48 MM03
24611TERROU Andre00:59:56 MM32
25472CLAVEL Laurent01:00:25 MM33S/L PAYS DE BRIVE ATHLETIQUE C
26459BRUNIE Cedric01:00:43 MSE5LIMOGES MUD RUN
27445BLONDEL Alain01:00:58 MM41
28544LAFARGE Christophe01:01:13 MM17
29519FOUCHE Gilles01:01:38 MM42
30465CAZES Bruno01:01:38 MM34
31653CARRÉ Samuel01:01:47 MM24
32520FREMONT Jérémie01:01:54 MSE6
33462CAPELLE Veronique01:01:56 FM31S/L ATHLETISME ST PANTALEON
34638LOMENECH Yann01:02:12 MM18UNION DES ASSOCIATIONS SPORTIV
35608SOL David01:02:30 MM35
36607SEMBLAT Sylvain01:02:46 MSE7
37488DELORT Mathieu01:03:03 MM04S/L DONZENAC OXYGENE
38643TREMOULET Jeremy01:03:09 MM05
39644JACQUET Dominique01:03:14 MM43
40426AUBOIROUX Marie-mathilde01:03:15 FSE3
41558MARCHAND Alexis01:03:16 MCA1les foulees lindoises
42645CARLET Jean-michel01:03:19 MM44
43532FROIDEFOND Bruno01:03:56 MM19
44660POMMEPUY Nicolas01:04:15 MM06coureur du dimanche d’allassac
45474CONCEICAO Sylvain01:04:16 MSE8
46471CHAZALVIEL Thierry01:04:18 MM45
47511FELGUEIRAS Albino01:04:23 MM36team carrefour
48652PUCHE Robin01:04:33 MSE9
49593RIEUX Sylvain01:04:44 MSE10
50600ROUSSELIE Chrystele01:04:50 FM22S/L PAYS DE BRIVE ATHLETIQUE C
51594RIOL Eric01:04:56 MM53S/L PAYS DE BRIVE ATHLETIQUE C
52548LAVOUTE Jean-pierre01:05:03 MM07S/L PAYS DE BRIVE ATHLETIQUE C
53540LABROUSSE Didier01:05:08 MM46S/L ATHLETISME ST PANTALEON
54449BONNY Lionel01:05:26 MM25adiss 87
55458BRIDON Valentin01:05:27 MSE11
56557MALAVAL Mickael01:05:37 MSE12
57604SAUVIAT Yannick01:05:43 MM08vulca raid
58451BOUÉ Aurélien01:05:44 MSE13
59516FEUILLADE Jean-francois01:05:47 MM37S/L ATHLETISME ST PANTALEON
60501DUBOIS Alain01:05:48 MM47S/L PAYS DE BRIVE ATHLETIQUE C
61550LEFORT Sylvain01:05:48 MM38S/L PAYS DE BRIVE ATHLETIQUE C
62545LAFORGE Virginie01:06:00 FM01UNION DES ASSOCIATIONS SPORTIV
63427AUDOUARD Anais01:06:08 FSE4
64549LECURAS Ludovic01:06:15 MM26brive correze co
65630MARCHEGAY Bruno01:06:16 MM48
66631MARCHEGAY Tiphaine01:06:16 FSE5
67632SUID Matthieu01:06:16 MSE14
68602SAINT-ORENS Nicolas01:06:17 MM27
69429BALAY Antoine01:06:17 MSE15
70633ROUBINET Benjamin01:06:20 MSE16
71636BASTIEN Remi01:06:25 MM09
72425AUBERTIE Damien01:06:36 MM010
73579PEYSSONNERIE Stephane01:06:48 MSE17lgn
74635ROUDIERE Thomas01:06:50 MSE18
75419ALEXANDRE Gérard01:06:52 MM54pompier vigeois
76625MALGOUYAT Laurent01:07:05 MM39
77641BARRAUD Frédéric01:07:15 MM49ASPB jogging
78477COUTURIER Gervaise01:07:41 FSE6brive limousin triathlon
79559MARCOU Pierre01:07:51 MM55S/L ATHLETISME ST PANTALEON
80436BECUE Patrick01:07:54 MM310
81515FERTE Guillaume01:07:55 MM28
82517FIEVRE Dimitri01:08:23 MSE19
83475CONTENSON Jean-marc01:08:30 MM110ATHLETISME TONNACQUOIS
84535JORDAN Pascal01:08:39 MM410
85499DOUZIECH Jolan01:09:20 MES1limoges mudrun
86664AURIAT Estelle01:09:26 FSE7
87663VETTER Thomas01:09:27 MSE20
88468CHARRIE Lysiane01:09:31 FM11
89587PROS Jean-louis01:09:38 MM56apch brive
90554LEYGONIE François01:09:53 MM411
91448BONNET Jean01:09:55 MM81S/L ATHLETISME ST PANTALEON
92617VALLADE Clemence01:09:57 FES1
93490DE NEIVA Herve01:10:38 MM111
94612THOMAS Sylvie01:10:47 FM32
95599ROUMANIE Raphaël01:10:47 MM311foot loisir ladouzois
96497DOMART Romain01:11:01 MES2
97432BARROT Yoann01:11:13 MSE21
98473COCHARD Marion01:11:25 FM02
99438BERNARD Melissa01:11:26 FM12
100569MOUSSOUR Nicolas01:11:26 MM011
101581PICHENÉ Marie01:11:57 FM03
102482DE ALMEIDA Francois01:12:06 MM29S/L PAYS DE BRIVE ATHLETIQUE C
103527GONZALEZ Julien01:12:22 MM112
104622VILAIN Régis01:12:23 MM312
105446BOCK Denis01:12:28 MM62
1062903SONNIER Cecile01:12:40 FM23S/L PAYS DE BRIVE ATHLETIQUE C
107433BAUDIN Ludovic01:12:41 MM113souriez et positivez
108525GENESTE Christophe01:12:54 MM313groupe omnisports departement
109431BARRIER Fanny01:12:57 FSE8S/L PAYS DE BRIVE ATHLETIQUE C
110541LACASSAGNE Annick01:13:00 FM61S/L TULLE AC
111485DELBREIL Anaelle01:13:02 FM04
112510FARGES David01:13:18 MM210
113498DONNADIEU Bernard01:13:27 MM57
114654BEFFARE Serge01:13:37 MM58S/L ELAN USSEL
115518FILIPE Anna01:13:41 FM41S/L PAYS DE BRIVE ATHLETIQUE C
116551LEMERLE Herve01:13:51 MM114
117583PISTER Pierre01:14:07 MM59
118483DECONCHAT Frédéric01:14:11 MM211intersport brive
119424ARTUR Jean-pierre01:14:12 MM212
120496DIEZ Bruno01:14:18 MM412
121542LACASSAGNE Pascal01:14:20 MM510PAYS DE BRIVE ATHLETIQUE CLUB
122614TROUPEL Sarah01:14:26 FSE9
123524GANNAC Nicolas01:14:27 MM012
124570ORGUE Thierry01:14:31 MM314
125586PREVOST Laurent01:14:42 MM115
126504DUMONT Aurelie01:14:45 FM05
127658CHADELAUD Jean-pierre01:14:57 MM413
128443BLANCHEMAISON Diane01:15:04 FCA1S/L CA BRIVE
129444BLANCHEMAISON Nicolas01:15:05 MM213
130649BUSSIERES Sandrine01:15:14 FM42
131628LINARES Josette01:15:33 FM43
132508FANTOU Marc01:15:44 MM116
133574PERRASSE Stephanie01:15:49 FM06
134487DELCOURT Nicolas01:15:51 MSE22
135560MAS Magalie01:16:07 FM13
136514FERRIÈRE Gaëlle01:16:12 FM07lagraule nature
137610TEIL Julie01:16:12 FSE10
138452BOUFFET Daniel01:16:22 MM414
139596ROPTIN Michael01:16:34 MM214
140655RAVERA Karine01:16:34 FSE11
141656AURIOL Quentin01:16:36 MSE23
142536JOURDAN William01:16:47 MM013
143500DRAPPIER Fabrice01:17:01 MM117
144556LUGUET Xavier01:17:11 MSE24
145457BREUILH Bastien01:17:23 MM118
146629TANTON Eric01:17:33 MM315
147512FERNANDEZ Magali01:17:56 FM33
148505DUMONT David01:18:15 MM215
149463CARNUS Lauric01:18:41 MES3
150502DUBOIS-RUSSIER Catherine01:18:45 FM34
151588QUENTIN Daisy01:18:48 FM14
152589QUÉTEL Pierre01:18:49 MM014
153534JALINAT Thomas01:19:04 MCA2DONZENAC OXYGENE
154533JALINAT Frederic01:19:04 MM216S/L DONZENAC OXYGENE
155428BAISNEE Anthony01:19:07 MM015
1562751CHONG Vanessa01:19:09 FSE12
157582PIÉRES Alain01:19:13 MM63brive limousin triathlon
158440BERTRAND Stephanie01:19:14 FM24S/L ATHLETISME ST PANTALEON
159469CHASSALINAS Véronique01:19:24 FM51
160615TRUCHI Elise01:19:33 FSE13
161657GLAUDON Charlene01:19:34 FM08
162584PLIOT Marc01:19:38 MM71S/L ACJ CHANTEIX
163430BARDON Stéphane01:20:05 MM316
164422ALONSO Laurianne01:20:10 FM09UNION DES ASSOCIATIONS SPORTIV
165572PACAUD Lea01:20:47 FSE14
166613TOULZAC Philippe01:21:16 MM317
167605SBAGHDI Rym01:21:22 FM010
168573PATRIGEON Anne01:21:25 FM25
169538JULIEN Pierre01:21:26 MM217
170470CHAUVIN Emilie01:22:01 FM011
171639MAGNE Pascal01:22:02 MM511
172537JUBERT Dorothee01:22:18 FM012
173564MOINEAU Aline01:22:20 FM15
174450BORDES Thierry01:22:22 MM512
175661FOURNET Maxime01:22:26 MSE25
176454BOURDONCLE Agnes01:22:46 FM013
177480DA SILVA Andrea01:22:58 FM014
178437BERGEAL Fabrice01:23:00 MM218
179571OTMANI Sophia01:23:02 FM16
180585PREVEAUX Veronique01:23:05 FM44
181539KRIVTZKY Marina01:23:09 FM17UASB
182552LESCURE Marie01:23:27 FM26
183561MAURY Nathalie01:23:44 FM27
184577PETIT-JEAN Yann01:23:51 MM219
185460CALMON Emmanuel01:23:59 MM318
186601RUPAUD Philippe01:24:09 MM415solidaires en pelotons
187489DELPY Michelle01:24:35 FM35
188506ERDAHL Leah01:24:36 FM015raid'oc 24
189647GERAUD Severine01:24:39 FM18
190456BREMOND Julie01:24:39 FSE15
191435BECOT Charlotte01:24:48 FSE16
192616VALET-NARJOU Isabelle01:25:05 FM45
193590RAVEL SALAVERT Charlotte01:25:19 FM016
194547LAVAUD Isabelle01:25:19 FM19
195421ALONSO Anne01:25:34 FM017
196642CHARLES Audrey01:26:27 FM018
197509FARGE Audrey01:26:27 FM019
198619VENANCIO Gabrielle01:26:38 FM36
199447BONIFACIO Ana01:26:47 FM37
200464CATTAÏ Sandrine01:27:05 FM020
201484DE LALOUBIE Jacques01:27:07 MM82solidaires en peloton
202637DACISSAC Stephanie01:27:47 FM38
203575PERSON Valérie01:28:01 FM39S/L ATHLETISME ST PANTALEON
204566MOREAU Sarah01:28:18 FSE17S/L PAYS DE BRIVE ATHLETIQUE C
205565MOREAU Martin01:28:19 MSE26
206495DIEMONT Florence01:28:26 FM46PAYS DE BRIVE ATHLETIQUE CLUB
207627MURAT Laurent01:29:03 MM319happy runner crew
208507FANTHOU Jeremy01:29:05 MSE27
209621VERLHAC Marina01:29:22 FM110
210580PICARD Emmanuel01:29:38 MM320S/L PAYS DE BRIVE ATHLETIQUE C
211423ARENTS Didier01:29:39 MM513
212530GOUZON Magali01:30:17 FM310
213555LOUVIÉ Cyrielle01:30:22 FM021
214531GOUZON Murielle01:30:23 FM28
215439BERNAZEAU Jean-philippe01:30:23 MM321
216651LARCHER Stephane01:30:25 MM119
217650LARCHER GUITARD Aurelie01:30:25 FM022
218466CHAMBON Veronique01:30:43 FM311S/L PAYS DE BRIVE ATHLETIQUE C
219662BUGNOT Lea01:30:43 FSE18
220646LECOQ Sophie01:30:43 FM111
221420ALEXANDRE-NAUCHE Huguette01:31:03 FM52go19
222476COUDERC Alain01:33:16 MM72ALAIN
223455BOYER Bernard01:34:24 MM64
224595ROBERT Magaly01:35:19 FM29S/L PAYS DE BRIVE ATHLETIQUE C
225603SANCHEZ Manuel01:35:19 MM322S/L PAYS DE BRIVE ATHLETIQUE C
226618VAREILLE Martine01:35:20 FM47S/L PAYS DE BRIVE ATHLETIQUE C
227478CREMOUX Frederic01:37:06 MM220asptt section handisport
228576PETIT-JEAN Claudia01:39:09 FM112
229491DENISET Myriam01:39:14 FM113
230648QUILLOT Camille01:41:31 FSE19
231598ROUCHER Yves01:44:30 MM73
232609SOULET Francoise01:45:45 FM312
233592RESTOUEIX Françoise01:47:04 FM53solidaires en peloton
234526GENTRIC Bernard01:47:05 MM74
235493DESSIRIER Laurent01:47:44 MM416
236640RAYET Solange01:49:37 FM62
237591RENAUDIN Eliane01:50:23 FM91AC GIGOUZAC SAINT GERMAIN
238441BESSONIE Didier01:50:24 MM65AC GIGOUZAC SAINT GERMAIN
239513FERREIRA Gentil02:16:42 MM514cs michelin bourges


51 Comments.

  • Eymard says:

    Bonjour
    Vous pouvez retrouver Photos et vidéos sur facebook « trail de la Truffe ».

  • SAM says:

    Très jolie Trail, très déroulant, le temps était parfait, bonne ambiance, merci à tout les bénévoles et organisateurs.
    Seul bémole, la camionnette sur le virage de la ligne d’arriver qu’il fallait contourner car celui ci faisait une livraison…
    Je reviendrais l’année prochaine.

    • Eymard says:

      Bonjour
      Pour la camionnette du traiteur, effectivement, c’est regrettable et …inattendu à ce moment…
      Nous ferons tout pour ne plus vivre ce moment désagréable pour tout le monde !
      Cordialement

  • Courteix says:

    Merci pour ce très beau parcours et merci aux bénévoles pour l’organisation
    Ou pouvons-nous trouver les photos faites pendant les courses ?
    Bonne continuation et à l’année prochaine !!

    • Eymard says:

      Bonjour
      Vous trouverez dans les jours à venir les photos sur facebook, » trail de la Truffe ». Il y a déjà des vidéos.
      Cordialement

  • EYMARD says:

    L’association Causse Espoir Corrézien remercie chaleureusement tous les participants à cette manifestation sportive et caritative, et attribue une mention particulière aux clubs voisins et amis du Pays de Brive Athlétique Club, Atlétisme St Pantaléon, Oxygène Donzenac…

  • Nathalie says:

    Un grand merci à tous les bénévoles qui m’ont permis de passer un très bon moment ! Une belle découverte pour moi car c’était mon 1er trail.

  • Fanthou says:

    Très bonne organisation et excellente aventure avec des paysages et un temps magnifique. Je reviens l’an prochain.

  • MURAT Laurent says:

    Bonjour,

    Merci beaucoup aux organisateurs, aux bénévoles, à notre speaker Lilian et sans oublier la Jorga team.

    Une matinée de folie, un super temps pour courir, ravitaillements au top.

    Que du plaisir pour en suer !!

    Un 12 kms assez costaud quand même mais à refaire !!

  • TERROU ANDRE says:

    Bonsoir,

    tout d’abord merci pour cette belle course que j’ai beaucoup de plaisir à courir chaque année. Merci bien sûr aux organisateurs et bénévoles qui font encore
    des merveilles pour que les coureurs chanceux que nous sommes profitent pleinement de ces belles matinées du dimanche matin.

    Merci Lilian pour ton mot sympa au micro mais je n’ai pu venir te voir après-course, obligations professionnelles obligent.
    Et pour terminer mille remerciements à Laurence (elle se reconnaîtra) qui m’a amené les lots que j’ai reçu en ce jour.
    On peut dire que les organisateurs n’ont pas fait les choses à moitié….. Merci pour votre générosité, même si courir pour une bonne cause reste le principal
    intérêt de ce rassemblement sportif.

    A bientôt.

  • Aurelie says:

    Bonsoir, super Trail des bénévoles au top ! Mais déçue pour le repas ! Inscrite sur le site dans les premiers 100 et quand nous sommes arrivées pour retirer les dossards plus de tickets et même plus de cadeau !!!! Donc on a du repartir le ventre vide !

    • Eymard Dominique says:

      Bonsoir
      Je crois que notre information pour les repas était incomplète. Nous avions annoncé « dans la limite de 500 repas servis ». On aurait dû écrire « 500 repas servis pour les premiers arrivés sur le site ».
      Notre information était incomplète donc mal comprise. Nous regrettons ce malentendu.

  • David Bonnet says:

    Bonjour, vous avez oublié Céline Nouailles dossard 2863 dans les résultats du 22 kms. Elle est arrivée juste devant moi (225ème). A trop contempler les paysages, on a perdu un peu de temps… le tapis était débranché à notre arrivée, vous nous avez demandé d’attendre pour relever nos numéros.
    Merci aux nombreux bénévoles super supporters tout le long du parcours, c’était génial.

  • Ellen KUSTERS says:

    Merci pour cette belle journée sportive. Première fois que je participe et je peux vous féliciter pour ce beau trail avec quelques belles montées. Ambiance au rendez vous grace à tous les bénévoles.

  • Laurent Milla says:

    Merci a tout les bénévoles super organisation.

  • Quillot says:

    Super course

  • Marc Pliot says:

    Bonjour
    Voila une course, une de plus, il est vrai, qui respire la convivialité, un duo avec Alain et Dominique EYMARD dont l’efficacité et la simplicité éclate au visage, ce qui donne des bénévoles à leur image, sympathiques et souriants, un duo qui n’a pas dit dés le début,  » je sais, je connais, j’ai l’habitude » mais au contraire un duo qui posait des tas de questions, qui demandait des conseils ou des suggestions, ce qui fait que trois ans plus tard, ils peuvent dire au minimum qu’ils ont une petite idée assez précise de ce qu’il faut faire pour aboutir à ce fabuleux résultat d’aujourd’hui, ô combien mérité ….. Bravo et MERCI. N’oublions pas Lilian qui a animé comme d’habitude avec gentillesse, bien aider par sa connaissance du milieu du Running.  » Toujours plus haut, toujours plus fort « , la barre des 500 devrait être votre objectif l’an prochain pour peu que le Dieu Râ veille sur vous.
    Marc

  • Sylvain says:

    Je me suis inscrit sur internet en avance pour avoir le droit au repas ( pour les 500 premiers inscrit ) au moment de retirer mon dossard on nous dit qu’il n’y a plus de repas ! Je trouve sa quand même pas normal s’étant inscrit à l’avance ..

    • Eymard Dominique says:

      Bonsoir
      Je crois que notre information était incomplète. Nous avions annoncé « dans la limite de 500 repas servis ». On aurait dû écrire « 500 repas servis pour les premiers arrivés sur le site ».
      Notre information était incomplète donc mal comprise. Nous regrettons ce malentendu.

  • Lomenech says:

    Je me suis inscrit hier à 17h sur le 12 km mais je ne vois pas ma préinscription apparaitre

    Est ce normal ?

  • BATAFEU says:

    Bonjour combien il y a t il de ravitaillement sur le 22 svp . Merci d’avance

  • ARTUR says:

    Bonjour, mon paiement a été validé vendredi 21/02 à 17h26, cde N149544 je n’apparaît pas sur les listes. Merci

  • miermont says:

    bonjour je me suis inscrit Jeudi soir sur le 22 km , le prélèvement a bien été effectué mais je ne suis toujours pas sur le listing.
    Merci

  • MORGANE BILLARD says:

    Je ne trouve pas le règlement de la course :

    -Il y a t’il du matériel obligatoire ?
    -A quelle h sont les podiums ? Et qui sont récompensé?

    Merci par avance

    • Eymard says:

      Bonsoir
      Les podiums auront lieu vers 11h45.
      Seront récompensés, les 3 premiers au scratch H et F des 2 courses et le premier de chaque catégorie H et F.
      Une puce et un dossard vous seront donnés, choisissez votre tenue !
      Cordialement

  • ROGER says:

    Bonsoir, Je viens d’avoir la confirmation du paiement pour ce trail (22) mais e m’aperçois que votre site rencontre quelques difficultés et que je n’apparais pas dans le listing des inscrits. Help!!!

  • DIEZ says:

    Bonjour,
    Où est le départ svp ?
    Cordialement

    • Eymard says:

      Bonjour
      Le départ aura lieu dans le petit bourg de Chartrier Ferrière. Impossible de manquer le lieu du départ. Des bénévoles vous guideront vers les parkings. puis laissez-vous guider.
      Cordialement

  • Marionnet says:

    Bonjour est-ce qu’il est prévu des douches à l’arrivée des courses ? Merci beaucoup

  • Damien BAUDIN says:

    Bonjour,
    Je suis inscrit sur le 22km. Je suis titulaire d’une licence FFCO compétition (course d’orientation). Est-ce qu’avec cette licence je suis dispensé de fournir un certificat médical ?

    Cdt

    Damien

    • jorga team says:

      Bonjour,

      La FF Athlétisme ne reconnait que ses propres licences et les licences UFOLEP avec mention athlétisme.
      Il vous faudra donc un certificat médical.
      Sportivement

  • yann petitjean says:

    Bonjour
    j’essaye de m’inscrire avec ma femme sur la course nature 12kms mais lorsque je veux valider son inscription, le site m’indique que la course est réservée aux hommes ?
    trail masculin uniquement ou bug du site ?
    merci

  • Eymard Dominique says:

    Bonjour
    Pour répondre à la question qui nous est souvent posée : les inscriptions pour les courses peuvent se faire sur le site jorganize.fr ou bien le matin de l’épreuve.
    Tarifs : 13€ sur jorganize. 15€ le dimanche sur place.

    • Cottin says:

      Comment s’inscrire pour la marche au trail de la truffe en ligne car on ne trouve que la course?? Merci d’avance

      • jorga team says:

        Bonjour,
        pour la marche les inscriptions se font uniquement sur place comme indiqué sur le flyer.
        Cordialement




Le resenti (3 choix possibles)

  • Je reviens l’année prochaine (100%, 1 Votes)
  • Plus pour moi (0%, 0 Votes)
  • J’ai battu mon record (0%, 0 Votes)
  • Ambiance chaleureuse et convivial (0%, 0 Votes)
  • Bonne restauration (0%, 0 Votes)

Total Voters: 1

Loading ... Loading ...

Le parcours (4 choix possibles)

  • Balisage impeccable (67%, 2 Votes)
  • rien à dire, impeccable (33%, 1 Votes)
  • Dur dur (0%, 0 Votes)
  • Trop de route ! (0%, 0 Votes)
  • super vue, paysage magnifique (0%, 0 Votes)
  • Rapide Sélectif (0%, 0 Votes)
  • Ca grimpe dur ! (0%, 0 Votes)
  • Attention ça glisse ! (0%, 0 Votes)
  • Je me suis perdu (0%, 0 Votes)

Total Voters: 2

Loading ... Loading ...

Ravitaillement (3 choix possibles)

  • Peu nombreux sur le parcours (100%, 1 Votes)
  • Quel festin ! (0%, 0 Votes)
  • Peu fourni (0%, 0 Votes)
  • Des dechets bien recyclés (0%, 0 Votes)
  • Mal placé sur le parcours (0%, 0 Votes)
  • Bien placé sur le parcours (0%, 0 Votes)

Total Voters: 1

Loading ... Loading ...

Les récompenses (3 choix possibles)

  • Super récompense (0%, 0 Votes)
  • Idée originale (0%, 0 Votes)
  • Bien doté (0%, 0 Votes)
  • On a trop attendu (0%, 0 Votes)

Total Voters: 0

Loading ... Loading ...

La météo (2 choix possibles)

  • Quoi de mieux ! (67%, 2 Votes)
  • Impeccable pour courir (33%, 1 Votes)
  • Quelle chaleur ! (0%, 0 Votes)
  • Je me suis bien trempé(e) (0%, 0 Votes)
  • Gla gla ! (0%, 0 Votes)
  • trop de vent (0%, 0 Votes)

Total Voters: 3

Loading ... Loading ...